Location: Krasnoyarskiy Pitomnik
(51.1333°N, 71.6167°E)
Time: 21:49:21
(UTC+00:00)

A-11 Canister half - Pass Details

Date: 28 April 2024
Orbit: 1525 x 1683 km, 47.3° (Epoch: 19 May)

Event Time Altitude Azimuth Distance (km) Brightness Sun altitude
Rises 21:22:46 0° 195° (SSW) 4,791 - -18.3°
Reaches altitude 10° 21:26:33 10° 183° (S) 3,834 - -18.0°
Exits shadow 21:27:51 14° 177° (S) 3,547 10.4 -17.9°
Maximum altitude 21:33:59 25° 133° (SE) 2,859 10.3 -17.3°
Drops below altitude 10° 21:41:34 10° 83° (E) 3,929 11.8 -16.6°
Sets 21:45:28 0° 72° (ENE) 4,932 12.7 -16.2°
